TimeCDT,TemperatureF,Dew PointF,Humidity,Sea Level PressureIn,VisibilityMPH,Wind Direction,Wind SpeedMPH,Gust SpeedMPH,PrecipitationIn,Events,Conditions,WindDirDegrees,DateUTC
12:53 AM,64.0,54.0,70,29.77,10.0,ESE,6.9,-,N/A,,Overcast,120,2011-10-12 05:53:00
2:53 AM,62.1,53.1,72,29.76,10.0,SE,3.5,-,N/A,,Overcast,140,2011-10-12 07:53:00
3:53 AM,60.1,53.1,78,29.75,10.0,SE,8.1,-,0.00,,Scattered Clouds,140,2011-10-12 08:53:00
4:53 AM,60.1,52.0,75,29.74,10.0,ESE,4.6,-,N/A,,Clear,110,2011-10-12 09:53:00
5:53 AM,59.0,52.0,78,29.74,10.0,SE,5.8,-,N/A,,Clear,130,2011-10-12 10:53:00
6:53 AM,57.9,52.0,81,29.73,10.0,SE,3.5,-,N/A,,Partly Cloudy,140,2011-10-12 11:53:00
8:53 AM,62.1,55.9,80,29.73,10.0,SE,4.6,-,N/A,,Mostly Cloudy,130,2011-10-12 13:53:00
9:53 AM,64.0,57.0,78,29.72,10.0,Calm,Calm,-,0.00,,Partly Cloudy,0,2011-10-12 14:53:00
10:53 AM,66.9,57.0,70,29.71,10.0,Calm,Calm,-,N/A,,Clear,0,2011-10-12 15:53:00
11:37 AM,64.4,57.2,77,29.71,10.0,Calm,Calm,-,N/A,Thunderstorm,Mostly Cloudy,0,2011-10-12 16:37:00
11:53 AM,63.0,57.0,81,29.74,3.0,SW,34.5,46.0,0.07,Rain-Thunderstorm,Light Thunderstorms and Rain,230,2011-10-12 16:53:00
11:55 AM,60.8,55.4,82,29.75,0.2,SW,31.1,46.0,0.20,Rain-Thunderstorm,Light Thunderstorms and Rain,220,2011-10-12 16:55:00
12:08 PM,55.4,55.4,100,29.74,1.0,WSW,10.4,-,0.44,Rain-Thunderstorm,Thunderstorms and Rain,240,2011-10-12 17:08:00
12:22 PM,57.2,55.4,94,29.74,3.0,WSW,9.2,-,0.46,Rain-Thunderstorm,Light Thunderstorms and Rain,240,2011-10-12 17:22:00
12:53 PM,59.0,57.0,93,29.72,3.0,West,8.1,-,0.53,Rain,Light Rain,270,2011-10-12 17:53:00
1:17 PM,59.0,57.2,94,29.72,2.5,WSW,5.8,-,0.05,Rain,Rain,240,2011-10-12 18:17:00
1:21 PM,59.0,57.2,94,29.72,3.0,Variable,3.5,-,0.06,Rain-Thunderstorm,Rain,0,2011-10-12 18:21:00
1:39 PM,60.8,57.2,88,29.71,10.0,NNW,3.5,-,0.06,Rain,Light Rain,340,2011-10-12 18:39:00
1:53 PM,60.1,57.0,90,29.71,8.0,Calm,Calm,-,0.06,Rain,Light Rain,0,2011-10-12 18:53:00
2:53 PM,60.1,57.9,93,29.71,4.0,SSE,8.1,-,0.02,Rain,Light Rain,160,2011-10-12 19:53:00
3:12 PM,60.8,57.2,88,29.71,7.0,ESE,4.6,-,0.00,,Overcast,120,2011-10-12 20:12:00
3:35 PM,60.8,57.2,88,29.70,7.0,ENE,4.6,-,0.00,,Overcast,70,2011-10-12 20:35:00
4:53 PM,60.1,57.9,93,29.67,6.0,NNW,4.6,-,0.03,Rain,Light Rain,340,2011-10-12 21:53:00
5:53 PM,60.1,57.9,93,29.67,6.0,NNE,4.6,-,0.00,,Overcast,30,2011-10-12 22:53:00
6:32 PM,60.8,57.2,88,29.67,6.0,Calm,Calm,-,0.01,,Overcast,0,2011-10-12 23:32:00
6:45 PM,60.8,57.2,88,29.68,7.0,East,5.8,-,0.01,Rain,Light Rain,90,2011-10-12 23:45:00
6:53 PM,60.1,57.0,90,29.68,7.0,East,6.9,-,0.01,Rain,Light Rain,90,2011-10-12 23:53:00
7:16 PM,59.0,57.2,94,29.68,6.0,Calm,Calm,-,0.00,Rain,Light Rain,0,2011-10-13 00:16:00
7:42 PM,60.8,57.2,88,29.69,5.0,Calm,Calm,-,0.00,,Overcast,0,2011-10-13 00:42:00
7:53 PM,60.1,57.0,90,29.68,5.0,Calm,Calm,-,0.00,,Overcast,0,2011-10-13 00:53:00
8:23 PM,59.0,57.2,94,29.67,4.0,Calm,Calm,-,N/A,,Overcast,0,2011-10-13 01:23:00
9:51 PM,57.2,57.2,100,29.68,4.0,Calm,Calm,-,N/A,,Mostly Cloudy,0,2011-10-13 02:51:00
9:53 PM,57.9,57.0,97,29.68,4.0,Calm,Calm,-,N/A,,Mostly Cloudy,0,2011-10-13 02:53:00
10:27 PM,57.2,55.4,94,29.68,1.8,Calm,Calm,-,N/A,,Overcast,0,2011-10-13 03:27:00
10:40 PM,57.2,57.2,100,29.68,3.0,Calm,Calm,-,N/A,,Overcast,0,2011-10-13 03:40:00
10:53 PM,57.0,55.9,96,29.68,3.0,Calm,Calm,-,N/A,,Mostly Cloudy,0,2011-10-13 03:53:00
11:02 PM,57.2,55.4,94,29.68,3.0,Calm,Calm,-,N/A,,Mostly Cloudy,0,2011-10-13 04:02:00
11:12 PM,57.2,55.4,94,29.68,2.5,Calm,Calm,-,N/A,,Mostly Cloudy,0,2011-10-13 04:12:00
11:22 PM,57.2,57.2,100,29.67,2.0,Calm,Calm,-,N/A,,Mostly Cloudy,0,2011-10-13 04:22:00
11:30 PM,57.2,55.4,94,29.67,1.5,Calm,Calm,-,N/A,,Overcast,0,2011-10-13 04:30:00
11:41 PM,57.2,55.4,94,29.67,2.0,Calm,Calm,-,N/A,,Overcast,0,2011-10-13 04:41:00
11:53 PM,57.9,57.0,97,29.66,2.5,Calm,Calm,-,N/A,,Overcast,0,2011-10-13 04:53:00